,,PA_Meas_PMT16A,,PR_Meas_QMR101_102,,RH_Meas_QMH101,,SR_Meas_QMS101,,TA_Meas_QMH101,,GenWind,,GenWind,
time,status,PA,status,PR,status,RH,status,SR,status,TA,status,DirAvg,status,SpdAvg,
2014-03-02, 07:58:04,VALID,918.809,VALID,0,VALID,93.6765,VALID,47.9188,VALID,20.4049,VALID,115,VALID,0.880078,
2014-03-02, 07:59:04,VALID,918.806,VALID,0,VALID,93.7756,VALID,52.3238,VALID,20.4244,VALID,94,VALID,0.832422,
2014-03-02, 08:00:04,VALID,918.826,VALID,0,VALID,93.7909,VALID,56.2992,VALID,20.4829,VALID,94,VALID,0.777344,
2014-03-02, 08:01:04,VALID,918.839,VALID,0,VALID,93.89,VALID,60.5968,VALID,20.5024,VALID,94,VALID,0.669922,
2014-03-02, 08:02:04,VALID,918.866,VALID,0,VALID,93.9129,VALID,65.1093,VALID,20.5219,VALID,94,VALID,0.618359,
2014-03-02, 08:03:04,VALID,918.868,VALID,0,VALID,93.9052,VALID,68.6549,VALID,20.5219,VALID,94,VALID,0.298828,
2014-03-02, 08:04:04,VALID,918.892,VALID,0,VALID,93.8976,VALID,72.2005,VALID,20.5414,VALID,94,VALID,0,
2014-03-02, 08:05:04,VALID,918.903,VALID,0,VALID,93.8671,VALID,76.9279,VALID,20.5804,VALID,94,VALID,0.718359,
2014-03-02, 08:06:04,VALID,918.862,VALID,0,VALID,93.7528,VALID,80.9032,VALID,20.5609,VALID,94,VALID,0.919922,
2014-03-02, 08:07:04,VALID,918.884,VALID,0,VALID,93.8138,VALID,83.9115,VALID,20.5999,VALID,94,VALID,0.921875,
2014-03-02, 08:08:04,VALID,918.887,VALID,0,VALID,93.7909,VALID,86.1678,VALID,20.6405,VALID,94,VALID,0.528125,
2014-03-02, 08:09:04,VALID,918.905,VALID,0,VALID,93.6994,VALID,87.7794,VALID,20.6569,VALID,94,VALID,0.715625,
2014-03-02, 08:10:04,VALID,918.931,VALID,0,VALID,93.5927,VALID,88.2092,VALID,20.6374,VALID,94,VALID,0.541406,
2014-03-02, 08:11:04,VALID,918.955,VALID,0,VALID,93.6689,VALID,88.3166,VALID,20.6959,VALID,94,VALID,0.496484,
2014-03-02, 08:12:04,VALID,918.96,VALID,0,VALID,93.3945,VALID,88.5315,VALID,20.717,VALID,94,VALID,0.213672,
2014-03-02, 08:13:04,VALID,918.967,VALID,0,VALID,93.4021,VALID,88.9613,VALID,20.7365,VALID,94,VALID,0.271484,
2014-03-02, 08:14:04,VALID,918.981,VALID,0,VALID,93.3487,VALID,89.8208,VALID,20.795,VALID,94,VALID,0.348047,
2014-03-02, 08:15:04,VALID,918.988,VALID,0,VALID,93.2572,VALID,90.7878,VALID,20.7934,VALID,94,VALID,0.314844,
2014-03-02, 08:16:04,VALID,919.019,VALID,0,VALID,93.3259,VALID,91.7547,VALID,20.873,VALID,94,VALID,0.319141,
2014-03-02, 08:17:04,VALID,919.016,VALID,0,VALID,93.0133,VALID,92.8292,VALID,20.9316,VALID,94,VALID,0.579297,
2014-03-02, 08:18:04,VALID,919.043,VALID,0,VALID,92.3043,VALID,94.011,VALID,20.8519,VALID,94,VALID,0.583203,
2014-03-02, 08:19:04,VALID,919.041,VALID,0,VALID,92.0527,VALID,95.6226,VALID,20.8925,VALID,94,VALID,0.670703,
2014-03-02, 08:20:04,VALID,919.067,VALID,0,VALID,91.9689,VALID,97.2342,VALID,20.9105,VALID,94,VALID,0.569141,
2014-03-02, 08:21:04,VALID,919.067,VALID,0,VALID,92.1976,VALID,99.4905,VALID,20.9901,VALID,94,VALID,0.542969,
2014-03-02, 08:22:04,VALID,919.107,VALID,0,VALID,92.1366,VALID,102.391,VALID,21.0291,VALID,94,VALID,0.377344,
2014-03-02, 08:23:04,VALID,919.139,VALID,0,VALID,92.0223,VALID,104.218,VALID,21.0291,VALID,94,VALID,0.126172,
2014-03-02, 08:24:04,VALID,919.168,VALID,0,VALID,92.0909,VALID,104.54,VALID,21.0486,VALID,94,VALID,0.325781,
2014-03-02, 08:25:04,VALID,919.192,VALID,0,VALID,92.1214,VALID,104.755,VALID,21.0681,VALID,94,VALID,0.344922,
2014-03-02, 08:26:04,VALID,919.234,VALID,0,VALID,91.9231,VALID,107.549,VALID,21.0275,VALID,94,VALID,0.28125,
2014-03-02, 08:27:04,VALID,919.225,VALID,0,VALID,91.7631,VALID,109.268,VALID,20.9885,VALID,95,VALID,0.467578,
2014-03-02, 08:28:04,VALID,919.234,VALID,0,VALID,91.885,VALID,110.987,VALID,21.0096,VALID,95,VALID,0.178516,
2014-03-02, 08:29:04,VALID,919.245,VALID,0,VALID,91.7021,VALID,112.921,VALID,21.0096,VALID,95,VALID,0.64375,
2014-03-02, 08:30:04,VALID,919.257,VALID,0,VALID,91.8317,VALID,116.144,VALID,20.9885,VALID,95,VALID,0.23125,
2014-03-02, 08:31:04,VALID,919.275,VALID,0,VALID,92.0451,VALID,118.4,VALID,21.0275,VALID,94,VALID,0.00078125,
2014-03-02, 08:32:04,VALID,919.283,VALID,0,VALID,92.068,VALID,121.623,VALID,21.0665,VALID,95,VALID,0.176953,
2014-03-02, 08:33:04,VALID,919.285,VALID,0,VALID,91.9231,VALID,124.739,VALID,21.1071,VALID,95,VALID,0,
2014-03-02, 08:34:04,VALID,919.299,VALID,0,VALID,91.7173,VALID,131.293,VALID,21.0876,VALID,95,VALID,0,
2014-03-02, 08:35:04,VALID,919.254,VALID,0,VALID,91.8622,VALID,138.814,VALID,21.1071,VALID,95,VALID,0,
2014-03-02, 08:36:04,VALID,919.312,VALID,0,VALID,91.8012,VALID,143.756,VALID,21.1657,VALID,95,VALID,0,
2014-03-02, 08:37:04,VALID,919.317,VALID,0,VALID,91.5572,VALID,148.054,VALID,21.164,VALID,95,VALID,0.176172,
2014-03-02, 08:38:04,VALID,919.336,VALID,0,VALID,91.3895,VALID,152.352,VALID,21.164,VALID,95,VALID,0.0820313,
2014-03-02, 08:39:04,VALID,919.325,VALID,0,VALID,91.4886,VALID,155.36,VALID,21.2242,VALID,95,VALID,0.0277344,
2014-03-02, 08:40:04,VALID,919.369,VALID,0,VALID,91.4505,VALID,155.145,VALID,21.2811,VALID,95,VALID,0.359375,
2014-03-02, 08:41:04,VALID,919.341,VALID,0,VALID,91.4962,VALID,154.393,VALID,21.3396,VALID,95,VALID,0.536719,
2014-03-02, 08:42:04,VALID,919.368,VALID,0,VALID,91.2066,VALID,157.509,VALID,21.3981,VALID,95,VALID,0.520703,
2014-03-02, 08:43:04,VALID,919.37,VALID,0,VALID,91.0541,VALID,159.443,VALID,21.4778,VALID,95,VALID,0.639844,
2014-03-02, 08:44:04,VALID,919.383,VALID,0,VALID,90.894,VALID,154.178,VALID,21.5168,VALID,95,VALID,0.739844,
2014-03-02, 08:45:04,VALID,919.374,VALID,0,VALID,90.4595,VALID,151.599,VALID,21.5363,VALID,103,VALID,0.250781,
2014-03-02, 08:46:04,VALID,919.405,VALID,0,VALID,90.2003,VALID,148.161,VALID,21.5949,VALID,88,VALID,0.578125,
2014-03-02, 08:47:04,VALID,919.409,VALID,0,VALID,89.7124,VALID,153.963,VALID,21.5949,VALID,88,VALID,0,
2014-03-02, 08:48:04,VALID,919.42,VALID,0,VALID,89.5675,VALID,155.145,VALID,21.6551,VALID,88,VALID,0,
2014-03-02, 08:49:04,VALID,919.399,VALID,0,VALID,88.828,VALID,157.831,VALID,21.6339,VALID,88,VALID,0.404687,
2014-03-02, 08:50:04,VALID,919.374,VALID,0,VALID,88.7289,VALID,163.311,VALID,21.5949,VALID,88,VALID,0.310156,
2014-03-02, 08:51:04,VALID,919.403,VALID,0,VALID,89.3388,VALID,170.079,VALID,21.6339,VALID,93,VALID,0.429688,
2014-03-02, 08:52:04,VALID,919.424,VALID,0,VALID,89.1635,VALID,180.071,VALID,21.6729,VALID,93,VALID,0.109375,
2014-03-02, 08:53:04,VALID,919.426,VALID,0,VALID,88.8738,VALID,187.055,VALID,21.6924,VALID,93,VALID,0.242188,
2014-03-02, 08:54:04,VALID,919.445,VALID,0,VALID,88.7213,VALID,192.535,VALID,21.751,VALID,93,VALID,0,
2014-03-02, 08:55:04,VALID,919.427,VALID,0,VALID,88.4392,VALID,198.551,VALID,21.79,VALID,93,VALID,0,
2014-03-02, 08:56:04,VALID,919.441,VALID,0,VALID,87.9666,VALID,205.213,VALID,21.8095,VALID,93,VALID,0.0195313,
2014-03-02, 08:57:04,VALID,919.431,VALID,0,VALID,87.9742,VALID,211.552,VALID,21.79,VALID,87,VALID,0.56875,
2014-03-02, 08:58:04,VALID,919.442,VALID,0,VALID,88.3554,VALID,216.709,VALID,21.8485,VALID,87,VALID,0.139844,
2014-03-02, 08:59:04,VALID,919.435,VALID,0,VALID,88.1267,VALID,220.792,VALID,21.9266,VALID,87,VALID,0.0078125,
2014-03-02, 09:00:04,VALID,919.442,VALID,0,VALID,87.7303,VALID,225.949,VALID,22.0242,VALID,87,VALID,0.121094,
2014-03-02, 09:01:04,VALID,919.408,VALID,0,VALID,86.8612,VALID,234.866,VALID,22.0437,VALID,87,VALID,0.547656,
2014-03-02, 09:02:04,VALID,919.399,VALID,0,VALID,86.8688,VALID,246.148,VALID,22.0632,VALID,87,VALID,0.378906,
2014-03-02, 09:03:04,VALID,919.395,VALID,0,VALID,87.433,VALID,255.602,VALID,22.1022,VALID,87,VALID,0.831641,
2014-03-02, 09:04:04,VALID,919.372,VALID,0,VALID,86.4495,VALID,262.371,VALID,22.0827,VALID,87,VALID,0.602344,
2014-03-02, 09:05:04,VALID,919.381,VALID,0,VALID,87.0899,VALID,269.892,VALID,22.1022,VALID,87,VALID,0.0171875,
2014-03-02, 09:06:04,VALID,919.343,VALID,0,VALID,87.959,VALID,277.628,VALID,22.2193,VALID,87,VALID,1.17578,
2014-03-02, 09:07:04,VALID,919.349,VALID,0,VALID,87.189,VALID,284.719,VALID,22.2762,VALID,87,VALID,0.828125,
2014-03-02, 09:08:04,VALID,919.36,VALID,0,VALID,86.9146,VALID,289.017,VALID,22.3933,VALID,87,VALID,0.251563,
2014-03-02, 09:09:04,VALID,919.38,VALID,0,VALID,86.0912,VALID,286.868,VALID,22.5316,VALID,88,VALID,0.532812,
2014-03-02, 09:10:04,VALID,919.369,VALID,0,VALID,85.6643,VALID,281.711,VALID,22.6665,VALID,93,VALID,0.547266,
2014-03-02, 09:11:04,VALID,919.392,VALID,0,VALID,84.4065,VALID,269.248,VALID,22.725,VALID,93,VALID,0,
2014-03-02, 09:12:04,VALID,919.416,VALID,0,VALID,84.0558,VALID,261.619,VALID,22.8616,VALID,93,VALID,0.398828,
2014-03-02, 09:13:04,VALID,919.391,VALID,0,VALID,83.9872,VALID,255.065,VALID,23,VALID,94,VALID,0.415234,
2014-03-02, 09:14:04,VALID,919.415,VALID,0,VALID,83.0114,VALID,256.892,VALID,23.0959,VALID,92,VALID,0,
2014-03-02, 09:15:04,VALID,919.424,VALID,0,VALID,81.5934,VALID,261.727,VALID,23.1527,VALID,92,VALID,0.630469,
2014-03-02, 09:16:04,VALID,919.423,VALID,0,VALID,81.5248,VALID,269.248,VALID,23.0746,VALID,83,VALID,0.439844,
2014-03-02, 09:17:04,VALID,919.439,VALID,0,VALID,80.2974,VALID,287.405,VALID,23.0356,VALID,106,VALID,0.451953,
2014-03-02, 09:18:04,VALID,919.409,VALID,0,VALID,80.1602,VALID,309.86,VALID,23.0356,VALID,83,VALID,0.639453,
2014-03-02, 09:19:04,VALID,919.397,VALID,0,VALID,81.014,VALID,344.027,VALID,23.016,VALID,81,VALID,0.461328,
2014-03-02, 09:20:04,VALID,919.416,VALID,0,VALID,79.9163,VALID,336.935,VALID,23.0551,VALID,81,VALID,0.133203,
2014-03-02, 09:21:04,VALID,919.4,VALID,0,VALID,80.2669,VALID,347.035,VALID,23.1136,VALID,81,VALID,0.518359,
2014-03-02, 09:22:04,VALID,919.388,VALID,0,VALID,80.5795,VALID,353.374,VALID,23.2112,VALID,81,VALID,0.207422,
2014-03-02, 09:23:04,VALID,919.371,VALID,0,VALID,78.8185,VALID,355.415,VALID,23.2698,VALID,81,VALID,0.473047,
2014-03-02, 09:24:04,VALID,919.344,VALID,0,VALID,79.0015,VALID,359.068,VALID,23.2112,VALID,244,VALID,0.391797,
2014-03-02, 09:25:04,VALID,919.352,VALID,0,VALID,80.0687,VALID,356.167,VALID,23.2502,VALID,244,VALID,0.589063,
2014-03-02, 09:26:04,VALID,919.323,VALID,0,VALID,79.1387,VALID,351.118,VALID,23.2911,VALID,244,VALID,0.383203,
2014-03-02, 09:27:04,VALID,919.335,VALID,0,VALID,79.4055,VALID,334.035,VALID,23.2893,VALID,244,VALID,0.396484,
2014-03-02, 09:28:04,VALID,919.315,VALID,0,VALID,79.9086,VALID,324.472,VALID,23.4082,VALID,241,VALID,0.0449219,
2014-03-02, 09:29:04,VALID,919.324,VALID,0,VALID,79.2225,VALID,322.861,VALID,23.543,VALID,241,VALID,0.0414063,
2014-03-02, 09:30:04,VALID,919.331,VALID,0,VALID,78.1934,VALID,326.943,VALID,23.6034,VALID,241,VALID,0.178906,
2014-03-02, 09:31:04,VALID,919.323,VALID,0,VALID,77.7283,VALID,331.993,VALID,23.6211,VALID,289,VALID,0.691797,
2014-03-02, 09:32:04,VALID,919.309,VALID,0,VALID,78.0333,VALID,322.109,VALID,23.6229,VALID,294,VALID,0.286328,
2014-03-02, 09:33:04,VALID,919.331,VALID,0,VALID,78.6737,VALID,350.688,VALID,23.6797,VALID,294,VALID,0.517187,
2014-03-02, 09:34:04,VALID,919.351,VALID,0,VALID,79.5885,VALID,377.226,VALID,23.8358,VALID,328,VALID,1.18125,
2014-03-02, 09:35:04,VALID,919.311,VALID,0,VALID,78.8414,VALID,376.581,VALID,23.8944,VALID,28,VALID,0.708203,
2014-03-02, 09:36:04,VALID,919.306,VALID,0,VALID,78.323,VALID,369.49,VALID,23.8358,VALID,28,VALID,0.366016,
2014-03-02, 09:37:04,VALID,919.304,VALID,0,VALID,79.1692,VALID,337.58,VALID,23.8962,VALID,27,VALID,0.310547,
2014-03-02, 09:38:04,VALID,919.29,VALID,0,VALID,76.3409,VALID,281.388,VALID,23.9939,VALID,9,VALID,1.64688,
2014-03-02, 09:39:04,VALID,919.326,VALID,0,VALID,77.1947,VALID,261.404,VALID,23.8181,VALID,23,VALID,1.05,
2014-03-02, 09:40:04,VALID,919.33,VALID,0,VALID,78.201,VALID,251.95,VALID,23.74,VALID,16,VALID,0.502734,
2014-03-02, 09:41:04,VALID,919.331,VALID,0,VALID,79.5275,VALID,266.884,VALID,23.74,VALID,19,VALID,1.02891,
2014-03-02, 09:42:04,VALID,919.341,VALID,0,VALID,79.5808,VALID,289.124,VALID,23.7596,VALID,354,VALID,0.632031,
2014-03-02, 09:43:04,VALID,919.349,VALID,0,VALID,79.5808,VALID,290.306,VALID,23.8572,VALID,353,VALID,1.00508,
2014-03-02, 09:44:04,VALID,919.355,VALID,0,VALID,78.0257,VALID,284.719,VALID,23.8749,VALID,8,VALID,1.62305,
2014-03-02, 09:45:04,VALID,919.36,VALID,0,VALID,78.4145,VALID,255.602,VALID,23.6815,VALID,33,VALID,1.61289,
2014-03-02, 09:46:04,VALID,919.353,VALID,0,VALID,79.6113,VALID,243.999,VALID,23.4259,VALID,33,VALID,0.662109,
2014-03-02, 09:47:04,VALID,919.357,VALID,0,VALID,80.5948,VALID,236.908,VALID,23.3691,VALID,33,VALID,0.0886719,
2014-03-02, 09:48:04,VALID,919.343,VALID,0,VALID,80.7701,VALID,226.486,VALID,23.4277,VALID,357,VALID,0.616406,
2014-03-02, 09:49:04,VALID,919.36,VALID,0,VALID,80.8463,VALID,232.61,VALID,23.4667,VALID,333,VALID,0.304688,
2014-03-02, 09:50:04,VALID,919.358,VALID,0,VALID,80.3508,VALID,258.396,VALID,23.5253,VALID,333,VALID,0.128906,
2014-03-02, 09:51:04,VALID,919.298,VALID,0,VALID,80.2365,VALID,255.173,VALID,23.5626,VALID,333,VALID,0.726172,
2014-03-02, 09:52:04,VALID,919.327,VALID,0,VALID,80.2441,VALID,256.892,VALID,23.5821,VALID,333,VALID,0.612891,
2014-03-02, 09:53:04,VALID,919.299,VALID,0,VALID,80.5185,VALID,258.718,VALID,23.5839,VALID,333,VALID,0.684375,
2014-03-02, 09:54:04,VALID,919.293,VALID,0,VALID,80.5033,VALID,269.462,VALID,23.5235,VALID,333,VALID,1.00078,
2014-03-02, 09:55:04,VALID,919.308,VALID,0,VALID,80.4347,VALID,283.645,VALID,23.4667,VALID,333,VALID,0.700781,
2014-03-02, 09:56:04,VALID,919.305,VALID,0,VALID,80.8692,VALID,287.298,VALID,23.3283,VALID,333,VALID,0.638672,
2014-03-02, 09:57:04,VALID,919.307,VALID,0,VALID,81.4638,VALID,278.917,VALID,23.4082,VALID,333,VALID,0.329688,
2014-03-02, 09:58:04,VALID,919.32,VALID,0,VALID,80.6252,VALID,277.735,VALID,23.504,VALID,333,VALID,0.159375,
2014-03-02, 09:59:04,VALID,919.336,VALID,0,VALID,79.8172,VALID,278.81,VALID,23.5821,VALID,333,VALID,0.901172,
2014-03-02, 10:00:04,VALID,919.33,VALID,0,VALID,79.7028,VALID,279.562,VALID,23.5253,VALID,333,VALID,0.250391,
2014-03-02, 10:01:04,VALID,919.36,VALID,0,VALID,79.6266,VALID,282.033,VALID,23.5626,VALID,333,VALID,0.261328,
2014-03-02, 10:02:04,VALID,919.349,VALID,0,VALID,79.9315,VALID,289.661,VALID,23.543,VALID,333,VALID,0.546484,
2014-03-02, 10:03:04,VALID,919.38,VALID,0,VALID,79.4741,VALID,323.076,VALID,23.5626,VALID,11,VALID,0.822266,
2014-03-02, 10:04:04,VALID,919.41,VALID,0,VALID,80.3051,VALID,363.903,VALID,23.6406,VALID,12,VALID,0.277344,
2014-03-02, 10:05:04,VALID,919.394,VALID,0,VALID,78.6584,VALID,376.796,VALID,23.7382,VALID,352,VALID,0.414453,
2014-03-02, 10:06:04,VALID,919.401,VALID,0,VALID,78.3154,VALID,394.846,VALID,23.7382,VALID,333,VALID,0.780078,
2014-03-02, 10:07:04,VALID,919.391,VALID,0,VALID,78.6965,VALID,434.385,VALID,23.7968,VALID,333,VALID,0.506641,
2014-03-02, 10:08:04,VALID,919.379,VALID,0,VALID,77.9418,VALID,479.51,VALID,23.8163,VALID,333,VALID,0.666406,
2014-03-02, 10:09:04,VALID,919.396,VALID,0,VALID,77.3396,VALID,579.967,VALID,23.9335,VALID,333,VALID,1.00742,
2014-03-02, 10:10:04,VALID,919.375,VALID,0,VALID,76.3866,VALID,589.1,VALID,23.8944,VALID,333,VALID,1.13516,
2014-03-02, 10:11:04,VALID,919.353,VALID,0,VALID,76.196,VALID,516.685,VALID,23.8163,VALID,268,VALID,1.13203,
2014-03-02, 10:12:04,VALID,919.385,VALID,0,VALID,77.9266,VALID,557.942,VALID,23.7382,VALID,268,VALID,0.633203,
2014-03-02, 10:13:04,VALID,919.386,VALID,0,VALID,77.7436,VALID,735.65,VALID,23.9316,VALID,296,VALID,0.43125,
2014-03-02, 10:14:04,VALID,919.344,VALID,0,VALID,75.2889,VALID,723.831,VALID,24.1677,VALID,296,VALID,0.207422,
2014-03-02, 10:15:04,VALID,919.331,VALID,0,VALID,75.3575,VALID,699.227,VALID,24.4216,VALID,296,VALID,0.460938,
2014-03-02, 10:16:04,VALID,919.339,VALID,0,VALID,74.4579,VALID,661.838,VALID,24.6149,VALID,353,VALID,0.273438,
2014-03-02, 10:17:04,VALID,919.325,VALID,0,VALID,71.2408,VALID,604.571,VALID,24.7907,VALID,271,VALID,0.985547,
2014-03-02, 10:18:04,VALID,919.309,VALID,0,VALID,71.0197,VALID,529.792,VALID,24.8511,VALID,299,VALID,0.312891,
2014-03-02, 10:19:04,VALID,919.303,VALID,0,VALID,68.7861,VALID,503.147,VALID,24.8883,VALID,265,VALID,1.07422,
2014-03-02, 10:20:04,VALID,919.297,VALID,0,VALID,69.1749,VALID,518.618,VALID,24.7516,VALID,293,VALID,1.22734,
2014-03-02, 10:21:04,VALID,919.316,VALID,0,VALID,68.6031,VALID,522.057,VALID,24.5368,VALID,302,VALID,1.11523,
2014-03-02, 10:22:04,VALID,919.304,VALID,0,VALID,69.6247,VALID,537.313,VALID,24.3806,VALID,310,VALID,0.957812,
2014-03-02, 10:23:04,VALID,919.306,VALID,0,VALID,70.7377,VALID,545.801,VALID,24.4002,VALID,310,VALID,0.322656,
2014-03-02, 10:24:04,VALID,919.298,VALID,0,VALID,71.3323,VALID,556.33,VALID,24.5173,VALID,310,VALID,0.114453,
2014-03-02, 10:25:04,VALID,919.298,VALID,0,VALID,70.1964,VALID,550.099,VALID,24.693,VALID,234,VALID,0.812109,
2014-03-02, 10:26:04,VALID,919.317,VALID,0,VALID,68.9995,VALID,531.511,VALID,24.8492,VALID,191,VALID,1.51641,
2014-03-02, 10:27:04,VALID,919.267,VALID,0,VALID,69.3502,VALID,539.677,VALID,24.9274,VALID,198,VALID,0.945313,
2014-03-02, 10:28:04,VALID,919.271,VALID,0,VALID,70.1354,VALID,535.809,VALID,25.0836,VALID,207,VALID,0.405469,
2014-03-02, 10:29:04,VALID,919.282,VALID,0,VALID,66.5982,VALID,504.544,VALID,25.0445,VALID,247,VALID,1.10195,
2014-03-02, 10:30:04,VALID,919.268,VALID,0,VALID,67.4367,VALID,433.847,VALID,25.064,VALID,247,VALID,0.235938,
2014-03-02, 10:31:04,VALID,919.248,VALID,0,VALID,67.8865,VALID,350.258,VALID,25.2398,VALID,247,VALID,0.983203,
2014-03-02, 10:32:04,VALID,919.234,VALID,0,VALID,67.5816,VALID,338.762,VALID,25.3765,VALID,247,VALID,0.2,
2014-03-02, 10:33:04,VALID,919.2,VALID,0,VALID,67.5282,VALID,331.026,VALID,25.4351,VALID,247,VALID,0.0527344,
2014-03-02, 10:34:04,VALID,919.208,VALID,0,VALID,68.4735,VALID,335.324,VALID,25.5523,VALID,247,VALID,0.617578,
2014-03-02, 10:35:04,VALID,919.192,VALID,0,VALID,70.2727,VALID,313.836,VALID,25.7085,VALID,247,VALID,0.562109,
2014-03-02, 10:36:04,VALID,919.224,VALID,0,VALID,70.5928,VALID,304.381,VALID,25.687,VALID,247,VALID,0.787891,
2014-03-02, 10:37:04,VALID,919.196,VALID,0,VALID,71.9955,VALID,308.141,VALID,25.4546,VALID,247,VALID,0.65,
2014-03-02, 10:38:04,VALID,919.228,VALID,0,VALID,73.4821,VALID,314.588,VALID,25.2379,VALID,239,VALID,0.277344,
2014-03-02, 10:39:04,VALID,919.213,VALID,0,VALID,73.7794,VALID,322.861,VALID,25.2183,VALID,255,VALID,0.578906,
2014-03-02, 10:40:04,VALID,919.209,VALID,0,VALID,73.7642,VALID,335.324,VALID,25.2183,VALID,255,VALID,0.739062,
2014-03-02, 10:41:04,VALID,919.18,VALID,0,VALID,73.2763,VALID,359.713,VALID,25.1793,VALID,255,VALID,0.560156,
2014-03-02, 10:42:04,VALID,919.217,VALID,0,VALID,73.3754,VALID,422.244,VALID,25.2183,VALID,205,VALID,0.794531,
2014-03-02, 10:43:04,VALID,919.18,VALID,0,VALID,72.918,VALID,407.417,VALID,25.2203,VALID,211,VALID,0.744141,
2014-03-02, 10:44:04,VALID,919.201,VALID,0,VALID,73.6346,VALID,415.582,VALID,25.3589,VALID,211,VALID,0.416797,
2014-03-02, 10:45:04,VALID,919.193,VALID,0,VALID,71.439,VALID,400.111,VALID,25.437,VALID,253,VALID,0.53125,
2014-03-02, 10:46:04,VALID,919.195,VALID,0,VALID,72.7884,VALID,462.856,VALID,25.4546,VALID,194,VALID,0.464844,
2014-03-02, 10:47:04,VALID,919.198,VALID,0,VALID,73.3296,VALID,453.939,VALID,25.3179,VALID,253,VALID,1.30742,
2014-03-02, 10:48:04,VALID,919.184,VALID,0,VALID,73.4516,VALID,562.992,VALID,25.0659,VALID,254,VALID,2.31523,
2014-03-02, 10:49:04,VALID,919.195,VALID,0,VALID,72.3081,VALID,619.076,VALID,24.693,VALID,245,VALID,1.7668,
2014-03-02, 10:50:04,VALID,919.145,VALID,0,VALID,75.8682,VALID,617.894,VALID,24.5387,VALID,254,VALID,1.7668,
2014-03-02, 10:51:04,VALID,919.177,VALID,0,VALID,75.914,VALID,568.471,VALID,24.4997,VALID,280,VALID,1.3793,
2014-03-02, 10:52:04,VALID,919.123,VALID,0,VALID,75.5557,VALID,582.546,VALID,24.5582,VALID,304,VALID,0.295312,
2014-03-02, 10:53:04,VALID,919.115,VALID,0,VALID,75.914,VALID,518.941,VALID,24.773,VALID,7,VALID,0.952734,
2014-03-02, 10:54:04,VALID,919.109,VALID,0,VALID,74.8467,VALID,502.717,VALID,25.025,VALID,321,VALID,0.891016,
2014-03-02, 10:55:04,VALID,919.083,VALID,0,VALID,73.4821,VALID,498.097,VALID,25.1831,VALID,266,VALID,0.822656,
2014-03-02, 10:56:04,VALID,919.084,VALID,0,VALID,73.5126,VALID,461.782,VALID,25.1831,VALID,248,VALID,0.750781,
2014-03-02, 10:57:04,VALID,919.031,VALID,0,VALID,70.9893,VALID,468.336,VALID,25.1245,VALID,249,VALID,1.71563,
2014-03-02, 10:58:04,VALID,919.049,VALID,0,VALID,72.2929,VALID,493.692,VALID,24.8707,VALID,238,VALID,1.53555,
2014-03-02, 10:59:04,VALID,918.993,VALID,0,VALID,72.3157,VALID,481.336,VALID,24.7126,VALID,251,VALID,0.865234,
2014-03-02, 11:00:04,VALID,919.014,VALID,0,VALID,72.1861,VALID,465.65,VALID,24.5778,VALID,256,VALID,1.70352,
2014-03-02, 11:01:04,VALID,919.016,VALID,0,VALID,71.1646,VALID,474.675,VALID,24.5173,VALID,251,VALID,1.27813,
2014-03-02, 11:02:04,VALID,919.021,VALID,0,VALID,71.4009,VALID,479.295,VALID,24.5173,VALID,251,VALID,0.588672,
2014-03-02, 11:03:04,VALID,919.031,VALID,0,VALID,70.57,VALID,498.419,VALID,24.654,VALID,240,VALID,0.459766,
2014-03-02, 11:04:04,VALID,919.058,VALID,0,VALID,70.6386,VALID,512.065,VALID,24.9274,VALID,203,VALID,0.707422,
2014-03-02, 11:05:04,VALID,919.048,VALID,0,VALID,69.213,VALID,499.924,VALID,25.2203,VALID,204,VALID,0.749219,
2014-03-02, 11:06:04,VALID,919.07,VALID,0,VALID,70.2879,VALID,488.32,VALID,25.1617,VALID,238,VALID,1.19336,
2014-03-02, 11:07:04,VALID,919.081,VALID,0,VALID,71.4695,VALID,485.527,VALID,25.1812,VALID,238,VALID,0.451562,
2014-03-02, 11:08:04,VALID,919.102,VALID,0,VALID,70.2498,VALID,489.609,VALID,25.396,VALID,250,VALID,0.896875,
2014-03-02, 11:09:04,VALID,919.068,VALID,0,VALID,70.9054,VALID,441.153,VALID,25.4761,VALID,224,VALID,0.658203,
2014-03-02, 11:10:04,VALID,919.086,VALID,0,VALID,70.4861,VALID,415.797,VALID,25.4937,VALID,257,VALID,0.551172,
2014-03-02, 11:11:04,VALID,919.026,VALID,0,VALID,70.1507,VALID,396.673,VALID,25.4741,VALID,257,VALID,0.703906,
2014-03-02, 11:12:04,VALID,919.037,VALID,0,VALID,70.204,VALID,382.813,VALID,25.5327,VALID,262,VALID,0.712109,
2014-03-02, 11:13:04,VALID,919.014,VALID,0,VALID,68.4278,VALID,368.308,VALID,25.5523,VALID,268,VALID,0.942187,
2014-03-02, 11:14:04,VALID,919.031,VALID,0,VALID,68.3744,VALID,356.597,VALID,25.3179,VALID,251,VALID,0.665625,
2014-03-02, 11:15:04,VALID,919.023,VALID,0,VALID,69.0834,VALID,350.795,VALID,25.2027,VALID,263,VALID,0.583594,
2014-03-02, 11:16:04,VALID,919.017,VALID,0,VALID,69.0986,VALID,347.894,VALID,25.0621,VALID,265,VALID,0.605078,
2014-03-02, 11:17:04,VALID,919.007,VALID,0,VALID,70.4022,VALID,350.903,VALID,25.1441,VALID,265,VALID,0.258203,
2014-03-02, 11:18:04,VALID,919.02,VALID,0,VALID,70.0516,VALID,361.862,VALID,25.2007,VALID,304,VALID,0.614844,
2014-03-02, 11:19:04,VALID,918.995,VALID,0,VALID,68.4507,VALID,392.697,VALID,25.2984,VALID,265,VALID,0.984375,
2014-03-02, 11:20:04,VALID,918.986,VALID,0,VALID,69.7771,VALID,460.17,VALID,25.3179,VALID,265,VALID,0.583203,
2014-03-02, 11:21:04,VALID,918.984,VALID,0,VALID,68.4202,VALID,448.459,VALID,25.3394,VALID,239,VALID,1.32305,
2014-03-02, 11:22:04,VALID,918.965,VALID,0,VALID,70.0516,VALID,507.767,VALID,25.2788,VALID,249,VALID,1.29023,
2014-03-02, 11:23:04,VALID,918.955,VALID,0,VALID,68.7251,VALID,500.568,VALID,25.1617,VALID,242,VALID,0.907031,
2014-03-02, 11:24:04,VALID,918.915,VALID,0,VALID,69.8915,VALID,523.453,VALID,25.1422,VALID,242,VALID,0.251953,
2014-03-02, 11:25:04,VALID,918.901,VALID,0,VALID,68.9614,VALID,534.95,VALID,25.2965,VALID,242,VALID,1.07461,
2014-03-02, 11:26:04,VALID,918.883,VALID,0,VALID,69.2816,VALID,552.677,VALID,25.2593,VALID,242,VALID,0.785547,
2014-03-02, 11:27:04,VALID,918.883,VALID,0,VALID,69.678,VALID,530.759,VALID,25.357,VALID,251,VALID,0.480469,
2014-03-02, 11:28:04,VALID,918.875,VALID,0,VALID,68.1686,VALID,523.776,VALID,25.5132,VALID,250,VALID,0.210547,
2014-03-02, 11:29:04,VALID,918.878,VALID,0,VALID,68.6336,VALID,516.792,VALID,25.7456,VALID,252,VALID,0.449609,
2014-03-02, 11:30:04,VALID,918.856,VALID,0,VALID,67.0708,VALID,613.811,VALID,25.9038,VALID,252,VALID,0.564453,
2014-03-02, 11:31:04,VALID,918.858,VALID,0,VALID,65.569,VALID,678.383,VALID,25.8843,VALID,251,VALID,1.08789,
2014-03-02, 11:32:04,VALID,918.849,VALID,0,VALID,66.5295,VALID,684.185,VALID,25.689,VALID,253,VALID,1.19687,